User: anonymous   Login
Location: Olsztyn
(53.7767°N, 20.4765°E)
Time: 21:04:42
(UTC+01:00)
Language:

Vanguard 2 Rocket - Orbit

View from above orbital plane
View from above orbital plane
View from above satellite
View from above satellite

Ground track
Ground track

The orbit data is extracted from the following two-line orbital elements,

1    12U 59001B   22025.47100595  .00000679  00000-0  38118-3 0  9996
2    12  32.9121  96.9170 1666021 282.5507  59.4410 11.44508003589816
Epoch (UTC): 25 January 2022 11:18:14
Eccentricity: 0.1666021
inclination: 32.9121°
perigee height: 553 km
apogee height: 3325 km
right ascension of ascending node: 96.9170°
argument of perigee: 282.5507°
revolutions per day: 11.44508003
mean anomaly at epoch: 59.4410°
orbit number at epoch: 58981

The dashed part of the orbit path shows where the satellite is in the earth's shadow,  

DLR